www.pogodaiklimat.ru

Погода и климат >> Архив погоды >> Индонезия >> Тегал


ПОГОДА в Тегале

  • Прогноз погоды в Тегале
  • Монитор погоды в Тегале

АРХИВ ПОГОДЫ в Тегале

Время (UTC), дата Ветер
(напр.,м/с)
 
Видим.   Явления Облачность Т
(С)
Тd
(С)
f
(%)
Тe
(С)
Тes
(С)
Комфортность P
(гПа)
Po
(гПа)
Тmin
(С)
Tmax
(С)
R
(мм)
R24
(мм)
S
(см)
09 15.08 С 7 12 км 3/1 600 м
[Sc Ci fib]
+30.0 +22.3 63 +39 +40 очень
душно
1010.8 1010.4
12 15.08 СВ 2 8000 м 4/1 600 м
[Sc Ci fib]
+28.2 +22.9 73 +38 +38 очень
душно
1012.0 1011.7 +31.2
15 15.08 ЮЗ 2 8000 м 5/3 600 м
[Sc Ac trans Ci fib]
+26.3 +22.0 77 +34 +34 очень
душно
1013.6 1013.3
18 15.08 Ю 3 8000 м 8/3 600 м
[Sc Ac As Ci fib]
+24.9 +20.7 78 +31 +31 очень
душно
1012.9 1012.5
21 15.08 Ю 2 8000 м 6/3 600 м
[Sc Ac As Ci fib]
+23.9 +19.7 77 +29 +29 душно 1012.0 1011.6
00 16.08 Ю 2 10 км 9/5 600 м
[Sc Ac trans Ci fib]
+24.4 +19.7 75 +30 +30 очень
душно
1013.3 1012.9 +24.0
03 16.08 ЮЗ 3 11 км 4/1 600 м
[Sc Ci fib]
+30.2 +19.7 53 +36 +47 очень
душно
1014.3 1014.0
06 16.08 СВ 3 12 км 3/1 600 м
[Sc Ci fib]
+31.8 +21.7 55 +40 +52 опасность
солнечного
удара
1012.1 1011.7
09 16.08 С 3 12 км 4/1 600 м
[Sc Ci fib]
+29.8 +23.9 71 +41 +44 опасность
перегрева
1010.6 1010.2
12 16.08 Ю 3 8000 м 6/3 600 м
[Sc Ac trans Ci fib]
+27.4 +20.6 66 +34 +34 очень
душно
1012.5 1012.1 +32.7
15 16.08 ЮЗ 5 8000 м 6/3 600 м
[Sc Ac trans Ci fib]
+25.4 +20.2 73 +31 +31 очень
душно
1014.1 1013.7
18 16.08 ЮЗ 4 8000 м 5/1 600 м
[Sc Ac trans Ci fib]
+24.7 +19.5 73 +30 +30 очень
душно
1013.5 1012.3
21 16.08 ЮЗ 3 8000 м 5/1 600 м
[Sc Ac trans Ci fib]
+24.2 +18.1 69 +29 +29 душно 1012.9 1012.6
00 17.08 Ю 2 9000 м 6/3 600 м
[Sc Ac trans Ci fib]
+24.4 +18.2 68 +29 +30 душно 1014.2 1013.8 +24.2
03 17.08 З 2 12 км 3/0
[Ci fib]
+29.7 +17.5 48 +34 +49 очень
душно
1014.9 1014.5
06 17.08 Ю 2 12 км 4/1 600 м
[Sc Ci fib]
+32.0 +17.6 42 +36 +51 опасность
солнечного
удара
1012.2 1011.8
09 17.08 С 1 11 км 5/3 600 м
[Sc Ac trans Ci fib]
+32.2 +20.6 50 +39 +42 очень
душно
1010.7 1010.3
12 17.08 Ю 2 8000 м 5/1 600 м
[Sc Ac trans Ci fib]
+27.2 +19.5 63 +33 +33 очень
душно
1012.8 1012.5 +33.1
15 17.08 Ю 1 8000 м 5/1 600 м
[Sc Ac trans Ci fib]
+25.0 +19.7 72 +30 +30 душно 1013.8 1013.4
18 17.08 Ю 2 8000 м 9/5 600 м
[Sc Ac As Ci fib]
+24.2 +18.1 69 +29 +29 душно 1013.4 1013.1
21 17.08 Ю 2 8000 м 6/3 600 м
[Sc Ac As Ci fib]
+23.2 +18.9 77 +29 +29 душно 1012.7 1012.3
00 18.08 Ю 3 10 км 4/1 600 м
[Sc Ci fib]
+23.4 +18.3 73 +29 +31 душно 1013.8 1013.4 +22.0
03 18.08 штиль 0 12 км 4/0
[Ci fib]
+29.6 +18.5 51 +34 +54 опасность
солнечного
удара
1014.4 1014.1
06 18.08 штиль 0 50 км ледяной дождь (гололёд) {гроза} ?/?
09 18.08 СВ 4 12 км 4/1 600 м
[Cu med, cong Ci fib]
+29.7 +21.2 60 +37 +39 очень
душно
1010.5 1010.2
12 18.08 0 ледяной дождь (гололёд) {гроза} н/о
15 18.08 Ю 1 8000 м 4/3 600 м
[Sc Ci fib]
+24.6 +19.2 72 +30 +30 очень
душно
1014.7 1014.3
18 18.08 Ю 3 8000 м 4/1 600 м
[Sc Ci fib]
+23.8 +17.3 67 +28 +28 душно 1013.7 1013.3
21 18.08 ЮЗ 3 8000 м 5/1 600 м
[Sc Ci fib]
+23.4 +17.3 69 +29 +29 душно 1013.3 1013.0
00 19.08 Ю 3 10 км 4/0
[Ci fib]
+23.1 +19.0 78 +29 +31 очень
душно
1014.5 1014.1 +23.0
03 19.08 ЮЗ 4 12 км 3/0
[Ci fib]
+29.2 +17.8 50 +34 +43 очень
душно
1014.3 1014.0
06 19.08 ЮЗ 4 12 км 4/1 600 м
[Sc Ci fib]
+32.6 +17.7 41 +37 +48 очень
душно
1011.6 1011.3
09 19.08 ЮЗ 7 12 км 4/0
[Ci fib]
+31.2 +18.7 47 +36 +37 очень
душно
1010.3 1009.9
12 19.08 Ю 4 8000 м 4/0
[Ci fib]
+26.0 +18.8 65 +31 +31 очень
душно
1012.6 1012.2 +33.2
15 19.08 штиль 0 50 км ?/? +24.8 +20.8 78 +31 +31 очень
душно
1014.0 1013.7
18 19.08 Ю 3 8000 м 6/3 600 м
[Sc Ac trans Ci fib]
+24.2 +18.1 69 +29 +29 душно 1012.9
21 19.08 ЮЗ 3 8000 м 4/1 600 м
[Sc Ci fib]
+23.6 +18.4 73 +28 +28 душно 1012.6 1012.2
00 20.08 Ю 1 10 км 6/1 600 м
[Sc Ac trans Ci fib]
+23.5 +18.3 73 +28 +29 душно 1013.7 1013.3 +23.0
03 20.08 ЮЗ 3 12 км 4/0 600 м
[Ci fib]
+28.8 +20.5 61 +36 +49 очень
душно
1013.7 1013.4
06 20.08 С 4 12 км 3/1 600 м
[Sc Ci fib]
+31.0 +19.0 49 +36 +48 очень
душно
1011.1 1010.7
09 20.08 СВ 7 12 км 3/1 600 м
[Sc Ci fib]
+30.4 +18.8 50 +36 +37 очень
душно
1009.6 1009.3
12 20.08 ЮЗ 2 8000 м 4/1 600 м
[Sc Ci fib]
+27.8 +20.0 63 +34 +34 очень
душно
1011.1 1010.7 +32.2
15 20.08 Ю 2 8000 м 6/3 600 м
[Sc Ac trans Ci fib]
+25.2 +20.3 74 +31 +31 очень
душно
1012.1 1011.8
18 20.08 Ю 2 8000 м 4/1 600 м
[Sc Ci fib]
+24.0 +20.3 80 +30 +30 очень
душно
1010.9 1010.6
21 20.08 ЮЗ 3 8000 м 4/1 600 м
[Sc Ci fib]
+23.8 +20.4 81 +29 +29 душно 1010.2 1009.9
00 21.08 Ю 4 10 км 4/1 600 м
[Sc Ci fib]
+24.0 +20.4 80 +30 +31 очень
душно
1011.5 1011.1 +23.2
03 21.08 СВ 7 12 км 3/0
[Ci fib]
+30.3 +18.8 50 +35 +39 очень
душно
1012.0 1011.6
06 21.08 СВ 8 12 км 3/0
[Ci fib]
+31.3 +19.7 50 +37 +41 очень
душно
1009.7 1009.4
09 21.08 С 5 12 км 4/1 600 м
[Sc Ci fib]
+30.0 +22.7 65 +40 +41 очень
душно
1009.4 1009.1
12 21.08 СВ 4 7000 м 5/1 600 м
[Sc Ac trans Ci fib]
+28.4 +22.2 69 +37 +37 очень
душно
1011.5 1011.1 +31.8
15 21.08 Ю 2 7000 м 9/5 600 м
[Sc Ci fib]
+27.4 +22.8 76 +36 +36 очень
душно
1013.2 1012.8
18 21.08 ЮЗ 4 7000 м гроза без осадков 8/4 540 м
[Cb cap Ac trans Ci fib]
+25.2 +20.6 76 +31 +31 очень
душно
1012.2 1011.9
21 21.08 ЮЗ 3 7000 м {гроза} 9/4 600 м
[Sc Ac As Ci fib]
+25.0 +20.8 78 +31 +31 очень
душно
1013.0 1012.6
00 22.08 Ю 1 9000 м {гроза} 9/4 600 м
[Sc Ac As Ci fib]
+25.6 +21.0 76 +32 +33 очень
душно
1014.4 1014.0 +24.0
03 22.08 В 2 10 км 6/3 600 м
[Sc Ac trans Ci fib]
+30.2 +20.6 56 +37 +46 очень
душно
1014.4 1014.1
06 22.08 С 4 12 км 3/1 600 м
[Sc Ci fib]
+30.8 +21.0 56 +38 +48 очень
душно
1011.9 1011.6

 

Местоположение метеостанции Тегал (Индонезия): широта -6.85 долгота 109.15 высота над уровнем моря 10 м.

В архиве по умолчанию представлена погода в Тегале за последнюю неделю. Архивные данные за месяц целиком и за предыдущие месяцы, начиная с января 2011 года, Вы можете получить, выбрав интересующий диапазон дат из раскрывающегося списка и нажав кнопку "Ввод!".


*Определитесь, кто Вы:
робот инопланетянин человек

Внимание! Время в таблицах - всемирное. Для получения местного времени необходимо прибавить поправку, которая равна 7 ч.

Смотрите также архив погоды в соседних городах и на ближайших метеорологических станциях:

Погода в Сиребоне (Индонезия) (99 км)
Погода в Чилачапе (Индонезия) (99 км)
Погода в Аэропорту Ахмад Яни (Индонезия) (137 км)
Погода в Семаранге (Индонезия) (140 км)
Погода в Бандунге (Индонезия) (173 км)
Погода в Цитеко (Индонезия) (246 км)
Погода в Джакарта порту (Индонезия) (265 км)
Погода в Джакарте (Индонезия) (267 км)
Погода в Чуруге (Индонезия) (285 км)
Погода в Аэропорту Сукарно-Хатта (Индонезия) (288 км)

Пояснения к столбцам:

Ветер - указаны скорость ветра в м/с - средняя за 10 мин, порывы в срок и между сроками (в фигурных скобках) и направление, откуда дует ветер: С - северный, СВ - северо-восточный, В - восточный, ЮВ - юго-восточный, Ю - южный, ЮЗ - юго-западный, З - западный, СЗ - северо-западный.
Видимость - горизонтальная дальность видимости в метрах или километрах. При видимости от 1 до 10 км при отсутствии осадков обычно наблюдается дымка, при ухудшении видимости до 1 км и менее - туман. В сухую погоду видимость может ухудшаться дымом, пылью или мглою.
Явления - указаны атмосферные явления, наблюдавшиеся в срок или в последний час перед сроком; фигурными скобками обозначены явления, наблюдавшиеся между сроками (за 1-3 часа до срока); квадратными скобками обозначены град или гололедные отложения с указанием их диаметра в мм.
Облачность - указаны через наклонную черту общая и нижняя облачность в баллах и высота нижней границы облаков в метрах; квадратными скобками обозначены формы облаков: Ci - перистые, Cs - перисто-слоистые, Cc - перисто-кучевые, Ac - высококучевые, As - высокослоистые, Sc - слоисто-кучевые, Ns - слоисто-дождевые, Cu - кучевые, Cb - кучево-дождевые. Подробнее классификацию облаков см. в Атласе облаков (PDF).
T - Температура воздуха - температура, измеренная на высоте 2 м над землей.
Td - Температура точки росы - температура, при понижении до которой содержащийся в воздухе водяной пар достигнет насыщения.
f - Относительная влажность воздуха - влажноcть воздуха, измеренная на высоте 2 м над землей.
Te - Эффективная температура - температура, которую ощущает одетый по сезону человек в тени. Характеристика душности погоды. При расчете учитывается влияние влажности воздуха и скорости ветра на теплоощущения человека.
Tes - Эффективная температура на солнце - температура, которую ощущает человек, с поправкой на солнечный нагрев. Характеристика знойности погоды. Зависит от высоты солнца над горизонтом, облачности и скорости ветра. Ночью, в пасмурную погоду, а также при ветре 12 м/с и более поправка равна нулю.
P - Атмосферное давление - приведенное к уровню моря атмосферное давление.
Po - Атмосферное давление - измеренное на уровне метеостанции атмосферное давление.
Tmin - Минимальная температура - минимум температуры воздуха на высоте 2 м над землей.
Tmax - Максимальная температура - максимум температуры воздуха на высоте 2 м над землей.
R - Количество осадков - Количество выпавших осадков за период времени, мм. При наведении курсора мыши на число - период времени, за который выпало указанное количество осадков.
R24 - Количество осадков - Количество выпавших осадков за 24 часа, мм.
S - Снежный покров - Высота снежного покрова, см. При наведении курсора мыши на число - состояние снежного покрова и степень покрытия местности в баллах.